Лопатинский

Россия / Московская область     55°20′12″N   38°43′02″E
темп.,
°C
ветер,
м/с
пор.,
м/с
влажн.,
%
обл.,
%
осадки,
мм/ч
давл.,
гПа
погр.,
м
17 апреля, сб
сб1700:00+10всв5128850 0.0 1020411
03:00+9всв499499 0.8 1021362
06:00+8всв51095100 0.2 1021344
09:00+11всв6981100 0.2 1021505
12:00+15всв696199 0.0 1020982
15:00+18всв7105079 0.0 10191481
18:00+15всв813565 0.0 10191110
21:00+11всв715638 0.0 1019647
18 апреля, вс
вс1800:00+9всв71461100 0.0 1019491
03:00+6всв6146725 0.0 1020491
06:00+6всв61271100 0.0 1020598
09:00+5в51079100 0.6 1021666
12:00+5всв5990100 2.3 1022567
15:00+6в51186100 2.6 1022703
18:00+6в6148395 0.4 10221009
21:00+6в5118483 0.4 1023633
19 апреля, пн
пн1900:00+5всв41187100 0.0 1023396
03:00+6всв51188100 0.1 1024653
06:00+5всв51288100 0.0 1024547
09:00+5всв61184100 0.0 1025686
12:00+3всв61295100 0.1 1026729
15:00+6в61076100 0.6 10261017
18:00+5в61181100 0.1 10271019
21:00+3в61376100 0.1 1027879
20 апреля, вт
вт2000:00+1всв51296100 0.1 1026626
03:00+1всв51197100 0.5 1025517
06:00+1всв51297100 0.8 1024519
09:00+2всв51195100 1.0 1023668
12:00+3в61196100 0.0 1022691
15:00+3в61295100 0.0 1020711
18:00+3всв61697100 0.9 1017917
21:00+6в91891100 6.2 10121124
21 апреля, ср
ср2100:00+5в112293100 11.4 10061389
03:00+7вюв91992100 15.3 10041161
06:00+7вюв81794100 0.6 1003915
09:00+8юв71495100 3.1 1002774
12:00+8юв71594100 2.3 10011342
15:00+6ю91380100 4.8 10031254
18:00+4ю61297100 0.2 1005592
21:00+4юз81394100 0.6 1010926